DLH612 EDDF-UBBB

Flight info

Callsign DLH612
Flight time N/A
Altitude 31000
Route CINDY8S/18 CINDY Z74 HAREM DCT ASLEP DCT TAKUT L603 BESNI/N0486F390 L605 MIQ DCT ALUTU DCT BIBAG L605 ESEGA DCT STEIN DCT TEGRI/N0487F410 DCT DINRO N743 UDROS UM859 KARDE UN644 ROLIN N644 LAGAS M747 SUBUT T923 ERLEV
Aircraft A359/H-SDE2E3GHIJ3J4J5LM1ORWXY/LB1D1

Departure

Time N/A
Airport Frankfurt Main Airport (EDDF)

Arrival

Time 2025-09-09 13:20
Airport Heydar Aliyev International Airport (UBBB)
Time Latitude Longitude Altitude Speed Heading
2025-09-09 10:41 45.50722 23.62119 40128 ft 535 kts 112°
2025-09-09 10:42 45.49993 23.64422 40114 ft 535 kts 113°
2025-09-09 10:49 45.40773 23.93485 40128 ft 535 kts 113°
2025-09-09 10:50 45.29954 24.27122 40081 ft 533 kts 113°
2025-09-09 10:53 45.16019 24.69857 40082 ft 528 kts 114°
2025-09-09 10:54 45.05137 25.02745 40058 ft 525 kts 114°
2025-09-09 10:57 44.95280 25.32184 40061 ft 524 kts 114°
2025-09-09 10:58 44.88003 25.53695 40045 ft 524 kts 115°
2025-09-09 11:01 44.72199 25.99874 40036 ft 522 kts 115°
2025-09-09 11:02 44.62650 26.27388 40032 ft 523 kts 115°
2025-09-09 11:05 44.48181 26.68524 40028 ft 524 kts 115°
2025-09-09 11:06 44.36815 27.00424 40029 ft 523 kts 116°
2025-09-09 11:09 44.21908 27.41137 40030 ft 524 kts 120°
2025-09-09 11:11 44.06636 27.75690 40034 ft 523 kts 121°
2025-09-09 11:13 43.91268 28.10009 40034 ft 522 kts 121°
2025-09-09 11:15 43.75850 28.44036 40040 ft 520 kts 121°
2025-09-09 11:17 43.58475 28.81909 40045 ft 519 kts 121°
2025-09-09 11:19 43.44891 29.11181 40053 ft 518 kts 122°
2025-09-09 11:21 43.29321 29.44376 40045 ft 516 kts 122°
2025-09-09 11:22 43.15632 29.73245 40039 ft 516 kts 122°
2025-09-09 11:25 42.98592 30.08800 40038 ft 516 kts 122°
2025-09-09 11:27 42.82757 30.41467 40032 ft 516 kts 123°
2025-09-09 11:29 42.71962 30.76714 40029 ft 510 kts 95°
2025-09-09 11:31 42.68636 31.14875 40021 ft 508 kts 93°
2025-09-09 11:33 42.66628 31.53125 40023 ft 507 kts 96°
2025-09-09 11:35 42.64446 31.91284 40014 ft 507 kts 95°
2025-09-09 11:37 42.62213 32.29443 40015 ft 508 kts 95°
2025-09-09 11:39 42.59829 32.67664 40005 ft 508 kts 95°
2025-09-09 11:41 42.57328 33.05868 40011 ft 508 kts 96°
2025-09-09 11:43 42.54674 33.44018 39995 ft 508 kts 96°
2025-09-09 11:45 42.51898 33.82092 39991 ft 508 kts 97°
2025-09-09 11:47 42.48987 34.20246 39988 ft 509 kts 97°
2025-09-09 11:49 42.45943 34.58433 39985 ft 510 kts 98°
2025-09-09 11:51 42.42780 34.96511 39976 ft 509 kts 98°
2025-09-09 11:53 42.39489 35.34564 39972 ft 509 kts 99°
2025-09-09 11:55 42.36073 35.72561 39960 ft 510 kts 99°
2025-09-09 11:57 42.32521 36.10640 39958 ft 511 kts 100°
2025-09-09 11:59 42.28831 36.48800 39947 ft 512 kts 101°
2025-09-09 12:01 42.25005 36.86999 39952 ft 514 kts 101°
2025-09-09 12:02 42.21547 37.20447 39945 ft 514 kts 101°
2025-09-09 12:05 42.16942 37.63562 39942 ft 517 kts 103°
2025-09-09 12:07 42.12688 38.02045 40401 ft 521 kts 103°
2025-09-09 12:09 42.08288 38.40636 40945 ft 522 kts 104°
2025-09-09 12:11 42.03776 38.79023 40943 ft 526 kts 105°
2025-09-09 12:13 41.99067 39.17920 40950 ft 530 kts 105°
2025-09-09 12:14 41.94812 39.52123 40945 ft 533 kts 106°
2025-09-09 12:17 41.89377 39.94827 40955 ft 538 kts 107°
2025-09-09 12:19 41.84143 40.34385 40952 ft 543 kts 107°
2025-09-09 12:21 41.79206 40.79574 40957 ft 550 kts 100°
2025-09-09 12:22 41.77738 41.10312 40956 ft 554 kts 100°
2025-09-09 12:25 41.75208 41.56627 40987 ft 558 kts 101°
2025-09-09 12:27 41.72822 41.98095 40991 ft 559 kts 101°
2025-09-09 12:29 41.69933 42.45063 41019 ft 565 kts 101°
2025-09-09 12:31 41.67542 42.81711 41026 ft 566 kts 102°
2025-09-09 12:33 41.64273 43.28936 41014 ft 567 kts 102°
2025-09-09 12:35 41.61606 43.65612 41024 ft 568 kts 102°
2025-09-09 12:37 41.58408 44.07722 41040 ft 572 kts 102°
2025-09-09 12:39 41.51058 44.48124 41030 ft 556 kts 117°
2025-09-09 12:41 41.39988 44.92094 40972 ft 557 kts 117°
2025-09-09 12:43 41.31271 45.26265 40965 ft 559 kts 117°
2025-09-09 12:45 41.21127 45.65406 40948 ft 561 kts 117°
2025-09-09 12:47 41.10792 46.04494 40934 ft 562 kts 117°
2025-09-09 12:49 41.00347 46.43528 40892 ft 563 kts 117°
2025-09-09 12:51 40.90052 46.83069 40904 ft 574 kts 105°
2025-09-09 12:53 40.86760 47.25264 40908 ft 579 kts 99°
2025-09-09 12:55 40.83865 47.65927 40865 ft 580 kts 98°
2025-09-09 12:57 40.81173 48.08468 37109 ft 593 kts 99°
2025-09-09 12:59 40.78345 48.50776 27865 ft 547 kts 97°
2025-09-09 13:00 40.76644 48.74909 23943 ft 520 kts 97°
2025-09-09 13:00 40.76313 48.79572 23223 ft 502 kts 97°
2025-09-09 13:01 40.75660 48.88652 20938 ft 491 kts 97°
2025-09-09 13:01 40.75009 48.97563 19457 ft 484 kts 97°
2025-09-09 13:02 40.74370 49.06276 18250 ft 468 kts 97°
2025-09-09 13:02 40.73744 49.14709 16488 ft 453 kts 97°
2025-09-09 13:03 40.73141 49.22819 14799 ft 436 kts 97°
2025-09-09 13:03 40.72783 49.34505 13597 ft 414 kts 93°
2025-09-09 13:04 40.72697 49.38263 13434 ft 403 kts 93°
2025-09-09 13:04 40.72529 49.45409 12720 ft 380 kts 94°
2025-09-09 13:04 40.72445 49.48856 12266 ft 373 kts 94°
2025-09-09 13:06 40.71816 49.68148 9740 ft 332 kts 103°
2025-09-09 13:06 40.71108 49.70986 9280 ft 322 kts 118°
2025-09-09 13:07 40.68320 49.75199 8754 ft 295 kts 147°
2025-09-09 13:07 40.64688 49.77114 8281 ft 273 kts 166°
2025-09-09 13:08 40.61143 49.78346 7932 ft 252 kts 166°
2025-09-09 13:08 40.56195 49.80031 7516 ft 243 kts 167°
2025-09-09 13:09 40.52996 49.81359 7201 ft 240 kts 159°
2025-09-09 13:09 40.49917 49.83004 6831 ft 239 kts 158°
2025-09-09 13:10 40.48374 49.83825 6650 ft 240 kts 158°
2025-09-09 13:10 40.45484 49.85976 6276 ft 239 kts 148°
2025-09-09 13:11 40.42676 49.88267 5882 ft 237 kts 148°
2025-09-09 13:11 40.39898 49.90594 5490 ft 237 kts 143°
2025-09-09 13:12 40.37350 49.93281 5113 ft 234 kts 140°
2025-09-09 13:12 40.33576 49.97308 4533 ft 233 kts 140°
2025-09-09 13:13 40.31048 49.99969 4146 ft 232 kts 141°
2025-09-09 13:13 40.28556 50.02580 3755 ft 226 kts 140°
2025-09-09 13:14 40.27331 50.03861 3561 ft 219 kts 140°
2025-09-09 13:14 40.26095 50.07041 3225 ft 195 kts 82°
2025-09-09 13:15 40.27771 50.09441 3002 ft 193 kts 14°
2025-09-09 13:15 40.30416 50.08930 2943 ft 194 kts 345°
2025-09-09 13:16 40.33011 50.08087 2451 ft 191 kts 348°
2025-09-09 13:16 40.36581 50.06967 1761 ft 168 kts 350°
2025-09-09 13:17 40.38776 50.06276 1331 ft 153 kts 351°
2025-09-09 13:17 40.39782 50.05961 1140 ft 144 kts 351°
2025-09-09 13:18 40.42620 50.05058 642 ft 141 kts 349°
2025-09-09 13:18 40.43571 50.04749 454 ft 139 kts 350°
2025-09-09 13:19 40.45410 50.04182 97 ft 135 kts 352°
2025-09-09 13:19 40.46312 50.03914 19 ft 127 kts 347°
2025-09-09 13:20 40.47550 50.03525 21 ft 14 kts 346°
2025-09-09 13:20 40.47644 50.03650 24 ft 11 kts 153°
2025-09-09 13:21 40.47455 50.03713 21 ft 16 kts 161°
2025-09-09 13:21 40.47207 50.03833 22 ft 22 kts 159°
2025-09-09 13:22 40.46939 50.03963 22 ft 13 kts 160°
2025-09-09 13:22 40.46860 50.04012 22 ft 13 kts 136°
2025-09-09 13:23 40.46879 50.04256 24 ft 16 kts 76°
2025-09-09 13:23 40.46910 50.04582 21 ft 18 kts 88°
2025-09-09 13:24 40.46917 50.04898 21 ft 15 kts 88°
2025-09-09 13:24 40.46783 50.05042 25 ft 8 kts 190°
2025-09-09 13:25 40.46685 50.04996 24 ft 7 kts 189°
2025-09-09 13:25 40.46652 50.05030 25 ft 5 kts 119°
2025-09-09 13:26 40.46634 50.05076 25 ft 2 kts 117°
2025-09-09 13:26 40.46632 50.05080 23 ft 0 kts 117°